Skip Page Navigation
NASA JPL Caltech
NASA Logo - Jet Propulsion Laboratory + View the NASA Portal
+ Center for Near-Earth Object Studies
JPL Home Earth Solar System Stars & Galaxies Technology
JPL Solar System Dynamics
BODIES ORBITS EPHEMERIDES TOOLS PHYSICAL DATA DISCOVERY FAQ SITE MAP
JPL Small-Body Database Browser
Search: [ help ]  
368 Haidea (A893 KC)
Classification: Main-belt Asteroid          SPK-ID: 2000368
Ephemeris | Orbit Diagram | Orbital Elements | Mission Design | Physical Parameters | Discovery Circumstances | Close-Approach Data ]

[ show orbit diagram ]
Orbital Elements at Epoch 2459200.5 (2020-Dec-17.0) TDB
Reference: JPL 100 (heliocentric ecliptic J2000)
 Element Value Uncertainty (1-sigma)   Units 
e .2011553310371811 3.3827e-08  
a 3.074355430652625 1.1774e-08 au
q 2.455932446273741 1.0371e-07 au
i 7.795419409879685 3.6266e-06 deg
node 226.3100496256739 2.9199e-05 deg
peri 95.27630225389525 3.0593e-05 deg
M 202.3509699769964 1.1173e-05 deg
tp 2460062.720495929402
(2023-Apr-28.22049593)
6.3298e-05 TDB
period 1968.926662531906
5.39
1.131e-05
3.097e-08
d
yr
n .1828407359454742 1.0503e-09 deg/d
Q 3.692778415031509 1.4142e-08 au
  Orbit Determination Parameters
   # obs. used (total)      3284  
   data-arc span      42084 days (115.22 yr)  
   first obs. used      1905-11-01  
   last obs. used      2021-01-20  
   planetary ephem.      DE431  
   SB-pert. ephem.      SB431-N16  
   condition code      0  
   norm. resid. RMS      .40995  
   source      ORB  
   producer      Otto Matic  
   solution date      2021-Feb-24 00:45:59  

Additional Information
 Earth MOID = 1.45718 au 
 Jupiter MOID = 1.74594 au 
 T_jup = 3.184 
[ show covariance matrix ]

Ephemeris | Orbit Diagram | Orbital Elements | Mission Design | Physical Parameters | Discovery Circumstances | Close-Approach Data ]

Physical Parameter Table
Parameter Symbol Value Units Sigma Reference Notes
absolute magnitude H 9.96   n/a E2021B10 IRAS observations used: 11
diameter diameter 69.277 km 0.195 urn:nasa:pds:neowise_diameters_albedos::2.0[mainbelt] (http://adsabs.harvard.edu/abs/2014ApJ...791..121M)  
rotation period rot_per 9.823 h n/a LCDB (Rev. 2020-October); Warner et al., 2009 Published Reference List:
[Fauerbach, M.; Marks, S.A.; Lucas, M.P. (2008) Minor Planet Bull. 35, 44-46.]
geometric albedo albedo 0.038   0.007 urn:nasa:pds:neowise_diameters_albedos::2.0[mainbelt] (http://adsabs.harvard.edu/abs/2014ApJ...791..121M)  
B-V BV 0.734   0.021 EAR-A-5-DDR-UBV-MEAN-VALUES-V1.2 #obs=2; phase (min.=3.28, mean=3.34, max.=3.40) deg.
U-B UB 0.292   0.041 EAR-A-5-DDR-UBV-MEAN-VALUES-V1.2 #obs=2; phase (min.=3.28, mean=3.34, max.=3.40) deg.
Tholen spectral type spec_T D   n/a EAR-A-5-DDR-TAXONOMY-V4.0 used 7 color indices; used ground-based radiometric albedo

368 Haidea (A893 KC)          Discovered 1893-May-19 by Charlois, A. at Nice
Reference: DISCOVERY.DBLast Updated: 2003-08-29

[ show close-approach data ]
Alternate Designations
 A893 KC = A905 VH = A921 TA 
Ephemeris | Orbit Diagram | Orbital Elements | Mission Design | Physical Parameters | Discovery Circumstances | Close-Approach Data ]
ABOUT SSD CREDITS/AWARDS PRIVACY/COPYRIGHT GLOSSARY LINKS
FirstGov 2021-Mar-06 12:32 UT
(server date/time)  
NASA Home Page
Site Manager:   Ryan S. Park
Webmaster  Alan B. Chamberlin